This is the latest recevied weather packets stored in our database for station/object BadBuchau. If no packets are shown the sender has not sent any weather packets the latest 10 day(s).
| Time | Temp. | Humidity | Pressure | Rain* | Wind** | Luminosity | Snow |
|---|---|---|---|---|---|---|---|
| 1788553931 | 24.44° C | 54% | 1014.6 hPa | 0 mm | - | - | - |
| 1788552130 | 23.89° C | 54% | 1014.7 hPa | 0 mm | - | - | - |
| 1788550330 | 24.44° C | 51% | 1014.6 hPa | 0 mm | - | - | - |
| 1788548531 | 25° C | 49% | 1014.1 hPa | 0 mm | - | - | - |
| 1788546731 | 25.56° C | 46% | 1013.9 hPa | 0 mm | - | - | - |
| 1788544931 | 26.67° C | 44% | 1013.4 hPa | 0 mm | - | - | - |
| 1788543130 | 28.33° C | 40% | 1013.2 hPa | 0 mm | - | - | - |
| 1788541344 | 28.33° C | 38% | 1013.1 hPa | 0 mm | - | - | - |
| 1788539531 | 28.89° C | 38% | 1013 hPa | 0 mm | - | - | - |
| 1788537731 | 28.89° C | 38% | 1013 hPa | 0 mm | - | - | - |
| 1788535931 | 28.89° C | 39% | 1013.4 hPa | 0 mm | - | - | - |
| 1788534131 | 28.89° C | 40% | 1013.5 hPa | 0 mm | - | - | - |
| 1788532330 | 28.89° C | 42% | 1014 hPa | 0 mm | - | - | - |
| 1788530531 | 28.33° C | 42% | 1014.3 hPa | 0 mm | - | - | - |
| 1788528730 | 28.33° C | 43% | 1014.5 hPa | 0 mm | - | - | - |
| 1788526930 | 27.78° C | 43% | 1014.8 hPa | 0 mm | - | - | - |
| 1788525130 | 27.22° C | 46% | 1015.2 hPa | 0 mm | - | - | - |
| 1788523331 | 26.11° C | 47% | 1015.7 hPa | 0 mm | - | - | - |
| 1788521530 | 26.11° C | 47% | 1015.9 hPa | 0 mm | - | - | - |
| 1788519731 | 25.56° C | 48% | 1016.5 hPa | 0 mm | - | - | - |
| 1788517930 | 25° C | 47% | 1016.9 hPa | 0 mm | - | - | - |
| 1788516130 | 25° C | 47% | 1017.5 hPa | 0 mm | - | - | - |
| 1788514330 | 24.44° C | 49% | 1017.8 hPa | 0 mm | - | - | - |
| 1788512530 | 23.89° C | 50% | 1018.1 hPa | 0 mm | - | - | - |
| 1788510730 | 22.78° C | 56% | 1018.2 hPa | 0 mm | - | - | - |
* Rain since midnight (hover to see other rain measurements)
** Current wind speed in m/s (hover to see current wind gust speed)